Location: Santa Maria di Sala
(45.5070°N, 12.0300°E)
Time: 08:46:13
(UTC+02:00)

STRAND 1 - Pass Details

Date: 03 March 2024
Orbit: 764 x 779 km, 98.4° (Epoch: 16 April)

Event Time Altitude Azimuth Distance (km) Brightness Sun altitude
Rises 18:38:41 0° 15° (NNE) 3,262 ? -7.2°
Reaches altitude 10° 18:41:01 10° 18° (NNE) 2,328 ? -7.6°
Maximum altitude 18:46:09 72° 103° (ESE) 813 ? -8.5°
Drops below altitude 10° 18:51:13 10° 187° (S) 2,302 ? -9.4°
Sets 18:53:31 0° 190° (S) 3,222 ? -9.8°
